Meteo pe oră la Dabrowiec

Astăzi, 15 Aprilie, Joi

Timp Temperatura Precipitaţii Vânt Presiune Umiditate
00:00 +2°C° 0 mm 2 m/s 760 mmHg 75%
01:00 +2°C° 0 mm 2 m/s 760 mmHg 77%
02:00 +1°C° 0 mm 2 m/s 759 mmHg 78%
03:00 +1°C° 0 mm 2 m/s 759 mmHg 80%
04:00 +1°C° 0 mm 2 m/s 759 mmHg 81%
05:00 +1°C° 0 mm 2 m/s 760 mmHg 79%
06:00 +1°C° 0 mm 3 m/s 760 mmHg 77%
07:00 +1°C° 0 mm 3 m/s 760 mmHg 75%
08:00 +2°C° 0 mm 3 m/s 760 mmHg 70%
09:00 +3°C° 0 mm 4 m/s 760 mmHg 64%
10:00 +3°C° 0 mm 4 m/s 760 mmHg 59%
11:00 +3°C° 0 mm 5 m/s 759 mmHg 57%
12:00 +3°C° 0 mm 5 m/s 759 mmHg 55%
13:00 +3°C° 0 mm 5 m/s 759 mmHg 53%
14:00 +3°C° 0 mm 5 m/s 759 mmHg 56%
15:00 +3°C° 0 mm 5 m/s 759 mmHg 60%
16:00 +3°C° 0 mm 5 m/s 758 mmHg 63%
17:00 +2°C° 0.3 mm 5 m/s 758 mmHg 74%
18:00 +1°C° 0.3 mm 5 m/s 758 mmHg 85%
19:00 0°C° 0.3 mm 5 m/s 758 mmHg 96%
20:00 0°C° 0.5 mm 4 m/s 758 mmHg 96%
21:00 0°C° 0.5 mm 4 m/s 758 mmHg 97%
22:00 -1°C° 0.5 mm 4 m/s 758 mmHg 97%
23:00 0°C° 0.6 mm 4 m/s 757 mmHg 97%

Mâine, 16 Aprilie, Vineri

Timp Temperatura Precipitaţii Vânt Presiune Umiditate
00:00 +1°C° 0.6 mm 3 m/s 757 mmHg 97%
01:00 +1°C° 0.6 mm 3 m/s 757 mmHg 98%
02:00 +1°C° 0.5 mm 3 m/s 757 mmHg 97%
03:00 +1°C° 0.5 mm 3 m/s 757 mmHg 97%
04:00 +1°C° 0.5 mm 3 m/s 757 mmHg 97%
05:00 +1°C° 0.3 mm 3 m/s 757 mmHg 96%
06:00 +1°C° 0.3 mm 3 m/s 757 mmHg 95%
07:00 +2°C° 0.3 mm 3 m/s 757 mmHg 95%
08:00 +3°C° 0 mm 3 m/s 757 mmHg 89%
09:00 +4°C° 0 mm 3 m/s 757 mmHg 83%
10:00 +5°C° 0 mm 3 m/s 757 mmHg 77%
11:00 +7°C° 0 mm 3 m/s 757 mmHg 71%
12:00 +8°C° 0 mm 3 m/s 757 mmHg 65%
13:00 +9°C° 0 mm 3 m/s 757 mmHg 59%
14:00 +9°C° 0 mm 3 m/s 757 mmHg 58%
15:00 +9°C° 0 mm 3 m/s 756 mmHg 57%
16:00 +9°C° 0 mm 3 m/s 756 mmHg 57%
17:00 +8°C° 0 mm 3 m/s 756 mmHg 63%
18:00 +7°C° 0 mm 3 m/s 757 mmHg 70%
19:00 +5°C° 0 mm 3 m/s 757 mmHg 77%
20:00 +5°C° 0.1 mm 3 m/s 757 mmHg 82%
21:00 +5°C° 0.1 mm 2 m/s 757 mmHg 87%
22:00 +4°C° 0.1 mm 2 m/s 757 mmHg 92%
23:00 +4°C° 0.2 mm 2 m/s 757 mmHg 93%

Poimâine, 17 Aprilie, Sâmbătă

Timp Temperatura Precipitaţii Vânt Presiune Umiditate
00:00 +4°C° 0.2 mm 2 m/s 757 mmHg 95%
01:00 +4°C° 0.2 mm 2 m/s 757 mmHg 96%
02:00 +4°C° 0.1 mm 2 m/s 756 mmHg 96%
03:00 +4°C° 0.1 mm 2 m/s 756 mmHg 96%
04:00 +4°C° 0.1 mm 2 m/s 756 mmHg 96%
05:00 +5°C° 0.1 mm 1 m/s 757 mmHg 96%
06:00 +5°C° 0.1 mm 1 m/s 757 mmHg 96%
07:00 +5°C° 0.1 mm 1 m/s 757 mmHg 96%
08:00 +5°C° 0 mm 1 m/s 757 mmHg 94%
09:00 +6°C° 0 mm 1 m/s 757 mmHg 92%
10:00 +6°C° 0 mm 1 m/s 757 mmHg 90%
11:00 +7°C° 0 mm 1 m/s 757 mmHg 89%
12:00 +7°C° 0 mm 1 m/s 757 mmHg 87%
13:00 +7°C° 0 mm 2 m/s 756 mmHg 85%
14:00 +7°C° 0 mm 2 m/s 756 mmHg 87%
15:00 +7°C° 0 mm 2 m/s 756 mmHg 89%
16:00 +7°C° 0 mm 2 m/s 756 mmHg 90%
17:00 +6°C° 0.1 mm 2 m/s 756 mmHg 92%
18:00 +6°C° 0.1 mm 2 m/s 756 mmHg 95%
19:00 +7°C° 0.1 mm 1 m/s 756 mmHg 97%
20:00 +7°C° 0.1 mm 1 m/s 756 mmHg 97%
21:00 +7°C° 0.1 mm 1 m/s 756 mmHg 98%
22:00 +7°C° 0.1 mm 1 m/s 756 mmHg 98%
23:00 +7°C° 0.1 mm 1 m/s 756 mmHg 98%

18 Aprilie, Duminică

Timp Temperatura Precipitaţii Vânt Presiune Umiditate
00:00 +7°C° 0.1 mm 1 m/s 756 mmHg 99%
01:00 +7°C° 0.1 mm 1 m/s 756 mmHg 99%
02:00 +7°C° 0.3 mm 1 m/s 755 mmHg 99%
03:00 +7°C° 0.3 mm 1 m/s 755 mmHg 98%
04:00 +6°C° 0.3 mm 2 m/s 755 mmHg 98%
05:00 +6°C° 0.1 mm 2 m/s 755 mmHg 97%
06:00 +6°C° 0.1 mm 2 m/s 755 mmHg 95%
07:00 +7°C° 0.1 mm 2 m/s 755 mmHg 93%
08:00 +8°C° 0.1 mm 2 m/s 755 mmHg 86%
09:00 +9°C° 0.1 mm 2 m/s 755 mmHg 79%
10:00 +10°C° 0.1 mm 2 m/s 755 mmHg 72%
11:00 +10°C° 0.2 mm 2 m/s 755 mmHg 71%
12:00 +10°C° 0.2 mm 2 m/s 755 mmHg 71%
13:00 +12°C° 0.2 mm 2 m/s 755 mmHg 70%
14:00 +12°C° 0.2 mm 2 m/s 754 mmHg 69%
15:00 +12°C° 0.2 mm 2 m/s 754 mmHg 68%
16:00 +12°C° 0.2 mm 2 m/s 754 mmHg 67%
17:00 +11°C° 0.1 mm 1 m/s 754 mmHg 73%
18:00 +10°C° 0.1 mm 1 m/s 754 mmHg 79%
19:00 +9°C° 0.1 mm 1 m/s 755 mmHg 84%
20:00 +8°C° 0 mm 1 m/s 755 mmHg 86%
21:00 +8°C° 0 mm 1 m/s 755 mmHg 88%
22:00 +7°C° 0 mm 1 m/s 755 mmHg 90%
23:00 +6°C° 0 mm 0 m/s 755 mmHg 91%

19 Aprilie, Luni

Timp Temperatura Precipitaţii Vânt Presiune Umiditate
00:00 +6°C° 0 mm 0 m/s 755 mmHg 91%
01:00 +5°C° 0 mm 0 m/s 755 mmHg 92%
02:00 +5°C° 0 mm 0 m/s 754 mmHg 92%
03:00 +5°C° 0 mm 0 m/s 754 mmHg 93%
04:00 +6°C° 0 mm 1 m/s 754 mmHg 93%
05:00 +7°C° 0 mm 1 m/s 754 mmHg 91%
06:00 +7°C° 0 mm 1 m/s 754 mmHg 89%
07:00 +8°C° 0 mm 1 m/s 754 mmHg 87%
08:00 +9°C° 0.1 mm 1 m/s 754 mmHg 84%
09:00 +9°C° 0.1 mm 2 m/s 754 mmHg 81%
10:00 +9°C° 0.1 mm 2 m/s 754 mmHg 77%
11:00 +10°C° 0.3 mm 2 m/s 753 mmHg 76%
12:00 +12°C° 0.3 mm 2 m/s 753 mmHg 74%
13:00 +11°C° 0.3 mm 3 m/s 753 mmHg 72%
14:00 +11°C° 0.3 mm 3 m/s 752 mmHg 74%
15:00 +11°C° 0.3 mm 3 m/s 752 mmHg 76%
16:00 +11°C° 0.3 mm 3 m/s 752 mmHg 78%
17:00 +10°C° 0.1 mm 3 m/s 752 mmHg 82%
18:00 +9°C° 0.1 mm 2 m/s 752 mmHg 86%
19:00 +8°C° 0.1 mm 2 m/s 751 mmHg 90%
20:00 +8°C° 0.1 mm 2 m/s 751 mmHg 91%
21:00 +8°C° 0.1 mm 2 m/s 751 mmHg 92%
22:00 +8°C° 0.1 mm 2 m/s 751 mmHg 93%
23:00 +8°C° 0.1 mm 2 m/s 751 mmHg 94%

20 Aprilie, Marţi

Timp Temperatura Precipitaţii Vânt Presiune Umiditate
00:00 +8°C° 0.1 mm 2 m/s 750 mmHg 95%
01:00 +8°C° 0.1 mm 2 m/s 750 mmHg 96%
02:00 +8°C° 0.3 mm 2 m/s 750 mmHg 96%
03:00 +8°C° 0.3 mm 2 m/s 750 mmHg 97%
04:00 +8°C° 0.3 mm 2 m/s 749 mmHg 97%
05:00 +8°C° 0.3 mm 2 m/s 749 mmHg 96%
06:00 +8°C° 0.3 mm 3 m/s 749 mmHg 94%
07:00 +8°C° 0.3 mm 3 m/s 749 mmHg 93%
08:00 +8°C° 0.1 mm 3 m/s 749 mmHg 90%
09:00 +9°C° 0.1 mm 3 m/s 749 mmHg 87%
10:00 +9°C° 0.1 mm 3 m/s 749 mmHg 84%
11:00 +10°C° 0 mm 3 m/s 749 mmHg 81%
12:00 +10°C° 0 mm 3 m/s 748 mmHg 77%
13:00 +11°C° 0 mm 3 m/s 748 mmHg 74%
14:00 +12°C° 0.1 mm 3 m/s 748 mmHg 70%
15:00 +13°C° 0.1 mm 4 m/s 748 mmHg 66%
16:00 +13°C° 0.1 mm 4 m/s 747 mmHg 63%
17:00 +12°C° 0.1 mm 4 m/s 747 mmHg 68%
18:00 +11°C° 0.1 mm 3 m/s 747 mmHg 73%
19:00 +10°C° 0.1 mm 3 m/s 747 mmHg 78%
20:00 +9°C° 0 mm 2 m/s 747 mmHg 83%
21:00 +8°C° 0 mm 2 m/s 748 mmHg 87%
22:00 +7°C° 0 mm 2 m/s 748 mmHg 92%
23:00 +6°C° 0 mm 2 m/s 748 mmHg 93%
Arată mai mult

Formular de consimțământ

Meteoprog și furnizorii noștri de servicii pot stoca și accesa date personale, precum cookies, identificatori de dispozitiv sau alte tehnologii similare pe dispozitivul dumneavoastră și procesa astfel de date pentru a personaliza conținutul și reclamele, dar și pentru a oferi caracteristici de social media și pentru a analiza traficul.

  • Stocarea și/sau accesarea informațiilor pe dispozitivul dumneavoastră

    Cookies, identificatori de dispozitiv sau alte informații pot fi stocate sau accesate pe dispozitiv în scopurile indicate mai sus.

  • Reclame și conținut personalizat, evaluarea reclamelor și a conținutului, informații despre audiențe și dezvoltarea produselor

    Reclamele și conținutul pot fi personalizate pe baza unui profil. Pot fi adăugate date suplimentare pentru a personaliza mai bine reclamele și conținutul. Performanța reclamelor și conținutului poate fi măsurată. Pot fi obținute informații despre utilizatorii care au văzut reclamele și conținutul. Aceste date pot fi utilizate pentru a dezvolta sau îmbunătăți experiența utilizatorilor, sistemele și software-ul.

Dând clic pe ‘Sunt de acord’, permiteți utilizarea cookie-urilor menționate, a identificatorilor de dispozitiv, balizelor web sau altor tehnologii similare. Setările pot fi modificate din browser-ul dispozitivului dumneavoastră.

În anumite scopuri, interesele legitime pot prima asupra consimțământului. Puteți citi mai multe informații în acest sens în Politica privind Confidențialitatea Datelor și Cookie.